GEFSSE_500_meanwind_180.txt.gz
Wind_Speed
19 20 20 21 21 21 22 21 21 21 21 21 21 21 21 21 21 20 19 18 18 17 17 17 16 16 15 14 14 14 13 12 11 11 9 8 8 8 7 7 8 8 8
20 20 21 21 22 23 23 23 23 23 22 22 22 23 23 23 23 22 22 21 20 20 19 19 18 18 18 17 16 15 15 14 13 13 12 11 10 9 9 9 9 9 9
22 22 23 23 23 23 24 24 24 24 24 24 24 24 24 24 24 24 24 23 23 22 21 20 20 20 20 19 19 18 17 16 15 14 13 12 12 11 11 10 11 11 11
24 24 25 25 25 25 25 25 26 26 26 26 26 26 25 25 25 25 26 25 25 24 23 23 22 22 22 22 21 20 19 18 17 16 15 14 13 13 13 12 12 12 12
27 27 27 27 27 27 27 27 27 27 27 28 28 28 28 28 27 27 27 27 26 26 26 25 25 24 24 23 23 22 21 20 19 17 17 16 16 15 15 14 14 14 14
29 29 30 30 30 30 29 29 29 29 29 29 29 29 30 30 30 29 29 28 28 28 28 27 27 26 26 25 25 24 23 22 21 19 18 18 18 17 17 16 16 16 15
31 31 32 32 32 32 32 32 32 32 32 32 32 32 32 32 32 32 31 31 30 30 30 29 29 28 28 27 27 26 25 25 24 22 21 21 20 20 19 19 18 18 17
33 33 34 34 34 35 35 35 35 35 34 34 35 35 35 35 35 34 34 33 32 32 32 32 31 30 30 29 29 28 27 26 26 24 23 23 23 22 21 21 21 20 19
35 36 36 36 37 37 37 37 37 37 38 38 37 38 37 37 37 37 36 36 35 35 34 34 33 33 32 31 30 30 29 29 27 26 25 25 25 24 23 23 22 22 22
37 37 38 38 39 39 40 40 40 40 40 41 41 41 40 40 40 40 39 39 38 38 37 36 36 35 35 34 33 31 31 30 30 29 28 27 27 26 25 24 24 24 24
38 38 39 40 41 41 42 42 42 43 43 43 43 43 43 43 43 43 43 42 41 40 40 39 38 38 37 36 35 34 33 31 31 30 30 29 29 28 27 27 26 25 25
40 40 40 41 42 43 43 44 44 44 45 45 46 46 46 45 45 45 45 44 43 43 42 41 41 40 39 38 37 37 36 34 33 32 31 31 30 30 29 28 28 27 26
40 41 42 42 43 44 44 45 46 46 47 47 48 48 48 48 48 48 48 47 46 45 44 44 43 42 42 41 40 39 38 37 36 34 33 33 32 31 31 31 30 29 28
41 42 43 44 45 46 46 47 48 48 49 50 50 50 51 51 51 51 51 50 49 48 47 47 46 45 44 44 43 42 40 40 38 37 36 35 35 33 32 32 32 31 30
43 44 46 47 48 48 48 49 50 51 51 52 52 53 53 54 54 53 53 53 52 51 50 49 49 48 48 47 46 44 43 42 41 39 39 38 36 35 35 34 34 33 32
43 44 45 47 49 49 50 49 50 51 52 52 53 54 54 55 56 56 56 56 55 54 53 52 51 51 50 50 49 48 46 45 44 42 41 40 39 37 37 36 35 35 34
42 43 45 47 48 49 49 50 50 52 53 54 54 55 56 56 57 58 58 58 58 57 57 55 54 53 53 52 52 51 50 48 47 45 43 43 42 40 39 38 37 36 36
42 44 45 46 48 49 50 50 51 52 53 54 55 55 56 57 59 59 60 60 60 59 59 58 57 56 55 55 54 53 52 51 50 48 46 45 45 43 42 40 39 38 37
42 43 44 46 47 49 50 51 51 52 53 54 55 55 56 57 58 59 60 60 61 60 60 59 59 59 58 58 57 55 54 53 52 51 49 48 47 46 44 43 42 40 39
40 42 43 44 45 47 48 49 50 51 53 54 54 55 56 56 58 58 59 60 61 61 61 61 61 61 61 60 59 58 57 56 55 54 53 51 49 48 46 45 44 42 41
39 40 41 42 43 44 45 47 48 49 51 52 53 54 55 56 57 57 59 60 60 61 62 63 63 62 62 61 61 61 59 58 57 56 55 53 52 50 49 48 46 45 43
38 39 40 41 42 43 44 45 46 47 48 50 51 52 54 55 56 57 58 59 60 61 62 63 63 63 62 62 62 62 61 59 58 57 56 55 53 52 51 49 48 47 45
37 37 38 40 41 42 43 43 44 45 47 49 51 53 54 55 56 56 56 57 58 59 61 62 63 63 62 62 61 62 61 60 59 58 58 57 55 54 53 51 50 49 47
37 37 38 40 41 42 42 43 45 46 47 49 51 52 54 56 57 57 56 57 58 58 59 60 61 61 61 62 61 62 62 61 61 59 58 57 56 56 54 54 52 50 48
38 38 39 40 41 42 42 44 44 46 47 49 50 51 53 55 56 56 56 56 56 57 57 58 59 59 59 60 60 60 61 61 60 59 57 56 56 55 55 53 53 51 49
39 39 40 41 41 43 43 43 44 45 46 48 49 50 52 54 55 55 55 55 56 56 56 57 57 57 58 58 58 59 59 59 58 57 56 55 55 55 55 53 53 52 50

GEFSSE_500_meanwind_186.txt.gz
Wind_Speed
19 19 20 20 20 20 20 20 20 20 20 20 20 20 20 20 19 19 19 19 18 18 18 17 17 17 16 16 16 15 15 14 13 13 12 12 12 12 12 12 12 11 11
19 20 20 21 21 21 22 22 22 22 22 22 22 22 22 22 22 21 21 21 21 20 20 20 19 19 19 19 18 18 17 16 15 15 14 14 14 14 13 13 13 13 12
20 21 21 22 22 22 22 23 23 23 24 24 24 24 24 24 24 24 23 23 23 22 22 22 21 21 21 21 20 20 20 19 18 17 16 16 16 16 15 15 14 14 14
22 22 23 23 23 23 23 24 24 24 24 25 25 25 25 26 26 25 25 25 25 24 24 24 24 23 23 22 22 22 22 21 20 19 18 18 18 18 17 16 16 16 16
24 24 24 24 25 25 25 25 26 26 26 26 26 26 27 27 27 27 27 27 27 26 26 26 26 25 25 25 24 23 23 23 22 22 21 20 20 20 19 19 18 18 18
26 26 26 26 27 27 28 28 28 28 28 28 28 28 28 28 29 29 29 29 29 28 27 27 28 28 27 27 26 25 25 24 24 23 23 23 22 22 21 21 20 20 20
27 27 28 28 29 29 29 30 30 30 30 30 30 30 30 30 31 31 31 31 31 31 30 30 29 30 30 29 29 28 27 26 25 25 24 24 24 24 23 23 22 22 22
29 29 29 30 30 30 31 31 32 32 32 32 33 33 33 33 33 33 33 34 33 33 33 33 33 32 31 31 31 30 29 29 27 27 27 27 26 26 26 25 25 24 24
30 30 31 32 32 33 33 33 34 34 35 35 35 36 36 36 36 36 36 36 36 36 35 35 35 35 34 33 33 33 32 31 30 29 29 28 28 28 27 27 27 26 25
31 31 32 33 34 35 36 36 36 36 37 38 38 38 38 38 39 39 39 39 39 38 38 38 37 37 37 36 35 35 34 33 32 31 30 30 29 29 28 28 28 28 27
32 33 34 35 36 36 37 38 38 38 39 39 40 40 40 40 41 41 41 41 41 41 40 40 40 39 39 39 38 37 36 36 35 34 33 32 31 30 29 30 29 29 29
32 33 34 35 36 36 37 38 39 40 40 40 41 42 42 42 43 43 43 43 43 42 42 42 42 41 41 40 40 39 38 37 37 36 35 34 34 33 32 31 31 31 30
33 34 35 35 36 37 38 39 40 41 42 42 43 44 44 44 44 45 45 45 45 45 44 44 44 44 44 43 42 41 40 40 39 38 37 37 36 35 34 33 33 32 32
34 35 36 36 37 38 39 40 41 43 44 44 45 45 46 46 46 47 47 47 47 47 47 47 47 47 47 46 45 44 43 43 42 40 39 39 38 37 36 35 35 34 34
35 35 36 37 39 40 41 42 42 44 45 46 46 47 47 48 48 48 48 48 49 49 49 49 49 49 49 49 48 47 46 45 44 43 42 41 40 39 38 37 37 37 36
35 36 38 38 39 41 42 43 44 45 46 47 48 49 49 50 50 50 50 50 51 52 52 52 51 51 51 51 50 49 48 48 47 46 45 45 43 42 41 40 39 39 38
35 37 38 40 41 42 43 44 45 46 47 49 49 50 51 52 52 52 52 52 53 54 54 54 54 54 53 54 53 53 51 50 50 49 48 47 46 45 44 43 42 41 40
35 36 38 40 42 43 45 46 46 48 49 50 51 52 52 53 54 54 54 54 55 56 56 56 56 56 56 55 55 54 54 53 52 52 51 50 49 48 47 45 44 43 43
35 36 37 39 41 43 45 46 47 48 49 51 52 53 54 54 55 56 56 57 57 57 57 58 58 58 58 57 57 57 57 56 55 54 54 52 51 50 49 48 47 46 45
36 37 37 38 40 42 43 43 45 47 48 49 51 52 54 54 55 56 57 58 58 57 58 59 60 60 60 60 60 59 59 58 57 56 55 55 53 53 52 51 50 48 47
35 36 36 37 38 39 40 42 43 44 46 48 49 51 53 54 54 55 56 57 58 58 59 60 60 61 61 60 60 60 59 59 59 58 58 57 56 55 54 53 53 51 49
34 34 35 35 36 38 38 40 42 42 43 45 46 48 50 52 53 54 54 55 57 57 57 59 59 59 59 59 59 60 60 59 60 59 60 59 58 57 57 56 54 53 52
34 34 35 35 36 37 38 39 40 41 42 44 46 47 49 51 51 52 52 53 54 54 55 57 57 57 58 58 59 60 60 60 59 59 60 60 59 58 58 57 56 56 55
33 34 35 35 36 37 38 40 41 43 43 44 46 47 48 49 50 50 50 51 52 52 52 53 54 55 57 57 57 59 59 59 59 59 59 58 57 58 58 58 57 57 57
34 34 35 35 36 37 39 42 43 43 44 45 46 46 47 48 48 48 49 49 50 51 52 53 53 54 55 56 55 57 57 58 58 58 58 57 57 58 58 57 57 56 56
35 35 35 35 37 38 39 41 43 43 43 44 45 46 47 47 47 47 48 50 51 52 51 52 53 54 55 55 55 55 56 57 57 57 58 57 57 57 57 56 56 55 54

GEFSSE_500_meanwind_192.txt.gz
Wind_Speed
20 20 21 21 21 20 20 19 19 18 18 18 17 16 16 16 16 16 16 16 16 16 16 16 16 16 16 15 15 14 14 14 13 13 13 13 12 12 12 12 13 13 13
21 21 21 21 21 21 21 21 21 20 20 20 19 19 18 18 18 18 18 18 18 19 18 18 17 17 17 17 17 16 16 17 16 15 15 15 14 14 14 14 14 15 15
22 22 22 22 22 22 22 22 22 22 22 21 21 20 20 20 19 19 20 20 20 20 20 19 19 19 19 19 18 18 18 18 18 18 17 17 17 16 16 15 16 16 16
23 22 22 22 22 22 22 22 22 22 22 22 22 21 21 21 21 21 21 21 20 20 21 21 21 20 20 20 20 19 19 19 20 20 19 19 18 18 18 18 18 18 18
23 23 23 23 23 23 23 23 23 23 23 23 23 23 22 22 22 22 22 23 22 22 22 22 22 22 21 21 21 21 21 21 21 22 21 21 21 20 20 20 20 20 20
24 24 24 24 24 24 24 24 25 25 25 25 25 25 24 24 24 24 24 24 24 24 24 24 24 24 24 24 23 23 23 24 24 23 23 23 23 23 22 22 22 22 22
24 24 25 25 26 26 26 26 26 26 27 27 27 27 27 27 27 27 27 27 27 27 28 28 27 27 27 27 26 26 25 25 25 25 25 25 25 25 25 24 24 24 24
26 26 26 26 27 27 28 28 28 28 28 29 29 29 29 29 30 30 30 30 30 30 30 31 30 30 30 30 29 29 29 29 28 27 27 26 26 26 27 26 26 26 25
27 27 27 28 28 29 29 30 30 30 31 31 31 32 32 32 32 32 32 32 33 33 33 33 33 33 33 33 32 32 31 31 31 30 30 29 29 28 29 28 28 27 27
28 29 29 29 30 30 31 31 32 32 33 33 33 34 34 34 34 34 35 35 35 35 34 34 34 34 34 34 34 33 33 33 33 33 33 32 31 31 30 30 30 29 29
28 29 30 30 31 32 32 33 33 34 34 35 35 35 36 36 36 36 36 37 37 36 36 36 36 36 36 36 36 36 35 35 35 34 34 34 33 33 33 32 32 32 31
29 30 30 31 32 33 33 34 34 35 35 36 36 36 37 37 37 37 38 38 38 38 38 39 39 38 38 37 37 38 37 37 37 36 36 36 35 34 34 34 34 34 33
30 30 31 32 33 33 34 35 35 36 36 37 37 38 38 39 39 39 40 40 40 40 40 41 41 41 40 40 40 40 39 39 39 38 38 38 37 37 36 35 35 35 34
30 31 32 32 33 34 35 36 36 37 38 38 39 39 39 40 40 41 41 42 42 42 42 43 43 43 43 43 42 42 42 41 41 41 41 40 39 39 39 38 37 37 37
31 31 32 33 34 35 37 38 38 38 39 40 40 41 41 42 43 43 43 44 44 44 44 45 45 46 46 46 45 45 45 44 44 43 43 43 42 42 41 41 40 39 39
32 32 34 34 35 37 38 38 39 40 41 41 42 43 43 44 45 45 46 46 47 47 47 47 48 48 48 48 48 48 48 47 47 47 47 46 46 45 44 43 42 41 41
33 34 35 36 37 37 38 38 39 40 41 42 43 44 45 46 47 47 48 49 49 50 50 50 50 51 51 51 51 51 51 51 51 50 50 49 48 48 46 45 45 43 43
34 35 36 36 37 38 38 38 39 40 41 42 43 45 47 48 48 49 50 51 51 52 52 52 52 52 53 54 54 53 53 53 53 52 52 51 50 50 49 48 48 47 46
34 35 36 36 37 38 38 39 40 40 42 43 45 46 47 48 49 50 50 51 52 53 53 53 54 54 54 55 56 56 55 55 54 54 54 53 53 52 52 51 50 49 49
34 34 35 36 37 37 38 39 40 41 43 44 46 46 47 48 49 50 50 51 52 53 54 54 54 55 56 57 58 57 57 56 56 55 55 54 54 54 53 53 52 52 52
33 34 35 36 37 37 38 39 40 42 42 43 44 44 46 48 49 50 50 51 51 52 53 53 54 55 57 58 58 58 57 57 57 56 56 56 56 55 56 55 54 53 53
33 34 34 35 36 37 38 39 41 41 41 41 42 43 45 46 47 48 49 49 50 51 52 52 53 54 55 57 57 58 58 57 57 56 56 56 56 56 56 56 55 54 53
34 34 34 35 36 37 38 39 40 40 41 41 42 43 43 44 46 47 48 50 50 51 52 53 53 54 55 55 56 57 58 58 57 57 57 57 57 56 55 55 56 55 54
34 34 35 35 37 38 39 39 39 40 41 42 42 43 45 44 45 48 49 50 51 52 52 52 52 53 54 54 55 57 58 58 58 57 56 56 57 57 57 56 55 55 55
34 34 35 36 37 38 39 40 40 41 41 42 43 44 45 45 46 47 49 49 50 51 51 52 52 52 52 53 54 56 57 58 58 57 56 56 57 57 58 57 56 56 56
35 35 36 37 37 38 39 40 41 41 42 43 44 44 45 46 46 47 47 49 49 50 51 51 51 52 52 53 53 54 54 55 56 57 56 56 56 56 58 57 57 57 57

GEFSSE_500_meanwind_198.txt.gz
Wind_Speed
20 20 20 20 19 19 19 18 18 18 17 17 16 16 16 16 16 16 16 16 15 15 15 15 14 14 14 14 14 14 14 13 13 13 13 12 12 12 12 12 12 12 12
21 20 20 20 20 20 20 20 20 19 19 19 19 18 18 18 18 17 17 18 18 17 17 17 16 16 16 16 16 16 16 15 15 15 15 15 15 15 15 14 14 14 14
22 22 22 21 21 21 21 21 21 21 21 21 21 21 20 20 19 19 19 19 19 19 18 18 18 18 18 17 17 17 16 16 16 16 16 17 17 17 17 17 17 16 17
23 23 22 22 22 22 22 22 22 22 22 22 22 22 22 21 21 21 20 20 20 20 20 19 19 19 19 18 18 18 18 18 18 18 18 18 18 18 18 18 18 19 19
23 23 23 23 22 23 22 22 22 22 22 23 23 23 23 23 22 22 22 22 22 21 21 21 20 20 20 19 20 20 20 21 21 20 20 20 20 20 20 20 20 20 21
23 23 23 23 23 23 23 23 23 23 23 23 23 24 24 24 24 24 24 23 23 23 23 23 23 23 22 22 22 22 23 23 23 23 23 22 22 22 22 22 22 22 22
23 23 23 23 23 24 24 24 24 24 24 24 25 25 25 25 25 25 25 25 25 25 25 25 26 26 25 25 25 25 25 25 25 25 25 25 25 24 25 24 24 25 25
24 24 24 24 24 25 25 25 25 25 26 26 26 26 26 26 26 27 27 27 27 27 27 28 28 27 28 28 28 28 28 28 28 28 28 28 28 27 27 27 26 26 26
26 26 26 26 26 26 26 26 27 27 27 27 27 28 28 28 28 28 28 29 29 29 29 29 29 29 29 30 30 30 31 30 30 30 29 30 30 30 30 29 29 28 28
27 27 27 27 27 27 27 27 27 28 28 28 29 29 30 30 30 30 30 31 31 31 31 31 31 31 31 31 32 32 32 31 32 31 32 32 32 32 32 32 32 31 31
27 27 27 27 27 28 28 28 28 29 29 30 30 31 31 31 32 32 32 33 33 33 33 33 33 33 33 33 33 33 34 33 33 33 33 33 33 33 34 34 34 34 33
26 26 27 27 27 27 28 28 29 30 31 31 32 32 32 33 33 34 34 34 34 35 35 36 36 35 35 36 36 36 36 36 36 36 35 35 35 35 35 36 36 36 35
26 26 26 27 27 28 28 29 30 31 31 32 32 33 34 34 35 35 35 36 36 37 37 37 38 38 38 38 39 39 39 39 39 39 38 37 37 37 37 37 38 38 38
26 27 27 28 29 29 30 30 30 31 31 32 33 34 35 35 36 36 37 37 38 38 39 39 40 41 41 41 41 41 41 41 42 41 40 40 40 40 40 40 40 40 40
27 27 28 28 29 30 30 31 31 32 32 33 34 35 36 37 38 39 39 40 40 41 41 42 42 42 42 42 43 43 44 44 44 44 44 43 43 43 43 43 43 43 42
28 29 29 29 30 30 31 31 32 33 34 35 35 36 37 38 40 41 41 41 42 42 43 43 44 44 44 44 45 45 46 46 47 47 47 47 46 46 46 46 45 45 45
29 30 30 30 31 31 32 32 32 32 33 34 35 37 38 39 40 41 42 42 43 43 43 44 45 46 46 47 47 48 48 48 48 49 49 49 49 49 49 48 48 48 48
29 30 30 31 32 32 32 32 33 33 34 35 36 37 39 40 41 42 42 43 44 45 45 45 46 47 47 48 49 50 51 51 51 51 51 51 51 51 51 51 51 51 51
29 30 31 31 32 33 33 33 34 35 35 36 37 38 39 40 42 43 44 45 45 46 47 48 48 48 49 49 50 51 52 52 52 53 53 53 53 53 53 53 53 53 53
30 30 31 32 33 33 34 35 35 36 36 37 38 38 39 41 42 44 45 46 47 48 49 49 49 49 50 50 50 50 51 52 53 53 53 54 55 55 55 55 55 55 54
30 31 32 32 33 33 34 35 36 36 37 38 39 39 40 41 43 44 46 47 47 48 49 49 49 49 49 49 49 50 50 52 53 54 54 54 54 55 55 55 55 55 54
31 32 32 33 33 33 34 35 36 37 37 38 39 40 40 41 42 43 45 45 46 46 47 48 49 49 49 51 52 53 52 53 54 54 55 55 55 55 56 55 55 55 55
31 32 33 33 33 34 35 35 36 37 38 39 39 39 40 41 42 42 43 43 44 46 46 47 49 50 50 51 52 53 54 54 54 54 54 55 55 56 57 55 55 55 55
32 32 33 34 34 35 35 36 36 37 38 38 39 40 41 41 41 42 43 43 44 45 46 47 48 50 51 51 52 53 54 54 55 54 54 55 56 56 56 56 56 56 55
33 33 34 35 35 36 36 37 37 38 38 39 40 40 40 41 41 42 43 43 44 45 45 46 47 49 51 52 52 53 54 56 56 56 55 55 55 56 57 57 57 57 56
33 34 34 35 35 36 37 37 38 38 39 40 40 40 40 41 41 42 43 44 45 46 46 46 47 49 50 51 52 53 54 56 57 57 56 55 55 55 57 57 57 58 58

GEFSSE_500_meanwind_204.txt.gz
Wind_Speed
20 20 20 20 20 20 20 19 19 18 17 17 17 17 16 16 15 15 15 15 15 15 15 15 14 14 15 14 14 14 14 14 14 14 14 14 13 13 13 13 13 13 13
21 21 21 21 21 21 21 21 21 20 20 19 19 18 18 17 17 17 17 18 18 17 17 17 17 17 17 16 16 16 16 16 15 15 16 16 15 15 15 15 15 15 15
22 22 22 22 22 21 21 21 21 21 21 21 21 20 20 20 19 19 19 19 19 19 19 19 18 18 18 18 19 18 18 18 17 17 17 17 17 17 17 17 17 17 17
23 23 22 22 22 21 21 21 22 22 22 22 22 22 22 21 21 21 21 21 21 21 20 20 20 19 19 20 20 20 19 19 19 19 18 19 19 19 19 18 19 19 19
23 23 23 23 22 22 22 22 22 22 22 23 23 23 23 22 22 22 22 22 22 22 22 22 21 21 21 21 21 21 20 20 21 21 20 21 21 21 20 20 20 20 21
24 23 23 23 23 23 23 23 23 23 23 23 23 23 23 23 23 23 23 24 24 24 24 24 23 23 23 23 23 23 23 23 23 23 23 23 23 23 23 23 23 23 23
24 24 24 24 24 24 24 24 25 25 24 24 24 24 24 24 24 25 25 25 25 25 25 25 25 25 25 25 25 25 25 25 25 25 25 25 25 25 25 25 25 25 25
25 26 26 25 25 25 25 25 25 25 25 25 25 25 25 25 26 26 26 27 27 26 26 26 26 26 26 26 27 27 27 27 27 26 26 26 27 27 27 27 27 27 27
27 26 26 26 26 26 26 26 26 25 25 26 26 26 26 26 26 26 26 27 27 27 27 27 28 28 28 28 28 28 29 29 29 28 28 28 29 29 29 29 29 29 29
28 27 27 27 27 27 27 27 27 27 27 27 27 28 28 28 28 27 27 28 28 28 29 29 29 30 30 30 30 30 31 31 30 31 30 30 31 32 31 31 32 31 31
29 28 28 28 28 29 29 28 28 28 28 28 28 28 28 28 29 29 29 29 29 30 30 31 31 31 32 32 32 33 33 33 33 33 32 33 33 34 34 33 34 34 34
29 29 29 29 29 29 29 29 29 28 28 28 28 28 28 29 29 29 29 30 30 31 32 32 32 33 33 34 35 35 35 36 36 36 35 36 36 36 36 35 36 36 36
29 29 29 29 29 29 29 29 29 29 29 28 28 28 28 29 29 29 29 30 31 31 32 33 34 35 35 36 37 37 38 38 38 38 38 38 38 38 37 38 38 38 38
29 29 29 29 29 28 29 29 28 28 29 29 29 29 29 29 29 30 30 31 32 32 33 35 36 37 38 38 38 39 39 40 40 40 40 40 40 39 40 39 39 40 40
29 29 29 29 28 28 28 28 28 28 29 29 29 29 29 30 30 31 31 32 33 33 34 36 37 38 39 40 41 41 41 41 41 41 41 41 41 41 42 42 41 41 42
29 30 29 29 29 28 28 28 28 28 28 29 29 30 31 31 31 32 33 34 35 35 36 37 39 40 41 42 42 42 42 42 43 43 43 43 43 44 43 44 44 43 44
30 30 30 30 29 29 29 29 29 29 30 30 31 32 32 33 33 34 35 36 37 37 38 39 40 42 42 43 43 43 43 43 44 44 44 44 45 45 46 46 47 47 47
31 30 30 30 30 30 29 29 29 30 31 32 32 33 34 35 36 36 37 37 38 39 40 41 42 43 43 43 43 43 44 44 45 45 46 46 47 48 48 49 49 49 50
31 30 30 30 30 30 30 30 30 31 32 32 33 34 35 36 37 37 38 38 39 40 40 41 42 43 43 44 45 46 46 46 46 47 47 48 49 50 50 50 51 51 51
31 30 30 30 30 30 30 30 31 32 33 33 34 35 36 37 38 38 39 39 40 40 41 41 42 43 44 45 46 47 47 48 48 48 48 49 50 50 51 52 52 52 52
30 30 30 30 30 30 31 31 32 33 33 34 35 36 37 37 38 39 40 40 41 41 42 43 44 44 45 46 47 47 47 48 48 48 49 50 50 51 52 52 53 53 54
31 30 30 30 31 31 32 33 33 34 35 35 36 37 37 38 38 39 40 41 42 43 43 44 45 45 46 46 47 47 47 47 48 48 49 50 51 52 52 53 54 54 56
31 31 31 31 32 32 33 34 34 35 36 36 37 38 38 39 39 40 41 42 42 43 44 45 45 46 46 46 47 48 49 49 49 49 50 51 52 53 53 54 54 55 56
32 32 32 33 33 34 34 34 34 35 36 36 37 38 39 39 40 40 41 42 43 44 45 45 46 46 47 47 48 49 50 51 52 51 51 52 52 53 54 55 56 56 56
33 33 34 34 34 34 35 35 35 36 36 36 37 38 38 39 40 40 41 42 43 44 45 46 46 47 48 48 49 49 50 51 53 54 53 53 53 53 54 55 56 56 55
34 34 34 35 35 35 35 36 36 36 37 37 37 38 38 39 40 41 41 42 43 44 45 46 47 48 48 49 48 48 49 50 52 53 55 54 54 54 55 55 55 55 56

GEFSSE_500_meanwind_210.txt.gz
Wind_Speed
17 17 16 16 16 16 16 16 16 15 15 15 15 15 14 14 14 15 15 15 15 14 14 15 15 15 15 15 15 16 15 15 15 15 15 15 15 15 15 15 15 15 15
18 18 18 18 18 18 18 17 17 17 17 17 17 17 17 17 17 16 17 17 17 17 17 17 17 17 17 17 17 17 17 17 17 16 17 17 17 17 17 17 17 17 17
20 20 20 20 20 19 19 19 18 18 18 18 18 19 19 19 19 19 19 19 19 20 19 19 19 19 19 18 18 18 19 19 18 18 18 18 18 19 19 19 18 18 19
22 22 22 22 21 21 21 20 20 19 19 19 19 20 20 21 21 21 20 21 21 21 21 21 21 21 20 20 20 20 20 19 19 20 20 20 20 20 20 21 20 20 20
23 23 23 22 22 22 22 21 21 21 21 21 21 21 21 21 22 22 22 22 22 22 22 22 22 22 22 22 22 21 21 21 21 21 21 21 22 22 22 22 22 22 22
23 24 23 23 23 23 23 23 23 23 23 22 22 22 22 22 22 23 23 23 24 24 24 24 24 24 24 24 23 23 23 23 23 22 22 23 23 24 24 24 24 24 24
24 24 24 24 23 23 23 23 23 23 23 24 24 24 24 24 24 24 24 24 25 25 25 26 26 26 25 25 25 25 25 24 24 24 24 25 25 26 26 26 26 26 26
25 25 25 25 25 24 25 25 24 25 25 25 25 25 25 25 25 25 25 25 26 26 27 27 27 27 27 27 26 26 26 26 26 26 27 27 27 27 28 28 28 28 28
26 26 25 25 25 25 25 25 25 25 25 25 26 26 25 25 25 26 26 26 27 27 27 28 28 28 28 28 28 28 28 28 28 29 29 29 29 30 31 31 31 31 31
27 27 26 26 25 25 26 26 26 26 26 27 27 27 26 26 26 26 27 27 27 27 27 28 28 28 28 29 29 29 29 29 30 31 31 32 32 33 33 33 33 33 33
28 27 27 27 27 26 26 26 27 27 27 27 27 27 27 27 27 27 27 27 27 28 28 28 28 28 29 29 30 30 31 31 32 32 33 33 34 34 34 35 35 35 35
29 28 28 28 28 27 27 27 27 27 27 28 28 28 28 28 28 28 28 28 29 28 28 28 28 29 29 29 30 31 32 33 33 34 35 35 35 35 35 36 36 36 36
29 29 29 29 29 29 28 28 28 28 28 28 28 28 28 29 29 29 29 29 29 29 29 29 29 29 30 30 31 32 33 34 35 35 36 36 36 36 37 37 38 37 37
29 29 29 30 29 29 29 28 28 28 28 28 28 28 29 29 29 29 30 30 30 30 30 30 30 30 31 32 32 33 34 35 37 37 37 38 38 38 39 39 39 39 39
30 30 30 30 29 29 29 29 29 29 29 29 29 29 30 30 30 30 30 30 30 31 31 31 32 32 33 33 34 35 35 36 37 38 39 39 39 40 40 40 40 41 41
30 30 30 30 30 30 29 29 30 29 29 29 29 29 29 29 30 30 30 30 30 31 32 33 33 34 34 35 36 36 36 37 38 38 39 40 41 41 42 42 42 43 43
31 31 31 30 30 30 30 30 30 29 29 29 29 29 29 29 29 29 30 30 31 32 32 33 34 35 36 36 37 37 37 38 39 40 41 42 43 43 44 44 44 45 46
31 31 31 31 31 31 30 30 30 30 30 30 30 30 30 30 30 30 31 31 32 33 34 35 36 36 36 37 38 38 39 40 40 41 42 43 44 45 45 46 47 47 48
32 32 31 31 31 31 31 31 31 31 31 31 31 31 31 31 31 31 32 32 33 34 35 36 37 37 37 38 39 40 40 41 42 43 44 44 45 46 47 48 48 49 49
32 32 32 32 32 31 31 31 32 32 32 32 32 32 31 31 32 32 32 33 34 35 35 36 37 38 38 39 40 41 42 43 43 44 45 46 47 47 48 49 49 50 50
32 32 31 31 31 31 31 31 32 32 32 32 32 32 32 32 32 33 34 34 35 36 36 37 38 38 39 40 41 43 44 44 45 46 47 47 48 49 49 50 51 51 52
31 31 31 31 31 31 31 32 32 33 33 33 33 33 33 33 34 35 35 36 36 37 37 38 39 39 40 42 43 44 45 45 46 47 48 48 49 50 51 51 52 53 53
32 31 31 31 31 31 31 32 33 33 33 33 34 34 34 35 35 36 37 37 37 38 38 39 40 41 42 44 46 47 46 45 46 46 46 47 48 49 50 51 53 54 55
32 32 31 31 31 31 31 32 32 33 33 33 34 35 35 36 36 37 38 38 38 39 40 41 41 43 44 45 46 46 46 46 46 45 45 46 47 49 50 52 53 54 56
31 31 31 31 31 31 32 32 33 33 33 34 35 35 36 37 37 38 39 39 39 40 41 41 42 42 44 44 45 45 45 47 47 47 46 46 47 48 50 52 53 55 56
32 32 32 31 31 32 32 33 33 33 34 35 36 36 37 37 38 39 40 40 40 41 41 41 42 43 44 45 45 45 46 47 47 48 49 48 48 48 50 52 53 55 55

GEFSSE_500_meanwind_216.txt.gz
Wind_Speed
19 18 17 16 15 14 14 13 13 13 13 12 12 12 12 11 11 12 12 12 12 13 13 13 14 14 14 14 14 15 15 15 16 16 16 16 16 16 17 17 17 16 16
20 19 18 18 17 17 16 15 15 14 14 13 13 13 13 12 12 12 13 14 14 14 15 15 16 16 16 16 16 16 17 17 17 18 18 18 18 18 18 18 18 18 18
21 21 20 20 19 19 18 18 17 16 15 15 15 14 14 14 14 14 15 15 15 16 16 17 17 17 17 17 18 18 18 18 18 18 18 18 18 18 19 19 19 19 19
23 22 22 22 21 21 20 19 19 18 18 17 17 17 17 16 16 17 17 17 17 18 18 18 19 19 19 19 20 20 20 20 20 20 20 19 19 19 19 20 20 20 20
24 24 23 23 22 21 21 20 20 20 19 19 19 19 18 19 19 19 19 19 19 19 19 20 20 21 21 21 21 22 22 21 21 21 21 20 20 21 21 21 22 22 23
25 24 23 23 23 22 22 21 21 21 21 20 20 20 20 20 20 20 20 20 21 21 21 21 22 22 23 23 23 23 23 22 22 22 22 21 22 22 23 23 24 24 24
26 25 24 24 24 24 23 22 22 22 22 22 22 22 21 21 21 21 21 21 22 22 22 22 23 23 24 24 24 24 24 23 23 24 24 24 25 25 25 25 26 26 27
27 26 25 25 25 25 24 24 24 23 23 23 23 23 23 22 22 22 22 23 23 23 23 23 23 24 24 24 25 25 25 25 26 26 26 26 27 27 27 27 28 28 29
29 28 27 27 26 26 25 25 25 24 24 24 24 24 24 24 24 24 24 24 24 24 24 24 24 24 25 25 25 26 26 27 28 28 28 28 28 29 29 29 29 30 30
30 29 28 28 27 26 26 26 25 25 25 25 25 25 25 25 25 25 25 25 25 25 25 25 25 25 25 25 26 26 27 27 28 29 29 29 29 29 30 30 31 30 30
31 30 29 28 28 27 27 26 26 26 26 26 26 26 26 26 26 26 26 26 25 25 25 25 25 25 26 26 27 27 27 28 28 28 28 29 29 30 30 31 31 31 31
32 32 31 30 29 29 28 27 27 27 26 26 26 27 26 26 26 26 27 26 26 26 26 26 26 27 27 27 28 28 28 28 29 29 29 29 30 31 31 32 33 33 34
34 33 32 31 30 30 29 29 28 28 27 27 27 27 27 27 27 27 27 27 28 28 28 28 28 28 28 28 29 29 29 29 30 30 31 31 31 32 32 33 34 35 36
34 33 32 32 31 31 30 30 30 29 28 28 28 28 28 28 28 28 28 29 29 29 30 30 30 30 30 30 30 29 29 30 31 31 32 32 33 34 35 35 36 37 38
34 33 33 33 33 32 31 31 31 30 29 29 29 29 29 29 29 29 29 29 30 30 30 30 31 31 31 31 31 31 32 32 32 33 33 34 34 35 36 37 38 38 39
34 34 34 34 33 33 32 32 32 31 31 31 31 30 30 30 30 30 30 30 30 30 31 31 31 31 31 31 32 33 33 34 34 34 35 36 36 37 37 38 40 40 41
34 34 34 34 33 33 32 32 32 32 32 32 32 32 32 31 31 31 31 31 31 31 31 32 32 32 32 32 33 34 34 35 35 36 37 37 38 39 39 40 41 42 43
35 34 34 34 33 33 33 33 33 33 33 33 33 33 33 32 32 32 32 32 32 32 32 33 33 33 33 34 34 35 35 36 37 37 38 39 40 41 42 43 43 44 44
35 34 34 34 34 33 33 33 33 33 33 33 33 33 33 32 32 33 33 32 32 33 33 33 33 34 34 35 35 36 37 37 37 38 39 40 41 43 44 44 45 46 46
35 35 34 34 34 34 33 33 33 33 33 33 33 33 33 33 33 33 33 33 33 34 34 34 34 35 35 36 36 37 37 38 39 40 41 42 43 44 45 46 47 47 48
35 34 34 34 34 34 34 34 34 33 33 33 33 33 33 33 33 33 33 34 34 34 35 35 35 36 37 37 38 38 39 39 40 41 42 43 44 45 46 47 47 48 49
35 35 35 34 34 34 34 34 34 33 33 33 33 33 33 33 33 34 34 35 35 35 35 36 36 37 38 39 39 40 40 40 40 41 42 44 45 46 47 48 48 49 50
36 36 36 35 34 34 34 34 34 33 33 33 33 33 33 34 34 35 35 35 36 36 36 37 37 38 39 40 41 41 41 41 41 41 43 44 46 47 48 48 49 50 51
37 36 36 36 35 34 34 34 34 33 33 33 33 33 34 35 35 35 35 36 36 37 37 38 39 40 40 41 41 42 42 43 43 43 43 45 46 47 47 48 49 50 52
38 37 36 36 35 35 34 33 33 33 33 33 34 34 34 35 35 36 36 36 37 37 38 39 40 41 41 42 42 42 42 43 44 45 45 44 45 47 48 49 49 50 51
38 38 37 36 35 35 34 34 33 33 33 34 34 34 35 35 36 36 36 37 37 38 38 39 40 41 41 41 42 42 43 44 45 46 46 45 46 46 47 48 49 50 50